Temperature
19 19 18 18 18 18 18 18 18 18 18 18 18 18 18 18 17 17 17 17 17 17 17 17 17 17 17 17 17 17 17 17 17 16 16 16 15 15 15 15 15 14 14
19 19 18 18 18 18 18 18 18 18 18 18 18 18 17 17 17 17 17 17 17 17 17 17 17 17 17 17 17 17 17 17 17 16 16 15 15 15 15 14 14 14 14
19 19 18 18 18 18 18 18 18 18 18 18 17 17 17 17 17 17 17 17 17 17 17 17 17 17 17 17 17 17 17 16 16 16 15 15 15 14 14 14 13 13 13
19 19 18 18 18 18 18 18 18 18 18 17 17 17 17 17 17 17 17 17 17 16 16 16 16 16 16 17 17 16 16 16 16 15 15 14 14 14 13 13 13 12 12
19 19 18 18 18 18 18 18 18 18 17 17 17 17 17 17 17 17 17 17 16 16 16 16 16 16 16 16 16 16 16 16 15 15 14 14 14 13 13 13 12 12 11
19 19 18 18 18 18 18 18 17 17 17 17 17 17 17 17 17 17 16 16 16 16 16 16 16 16 16 16 16 16 15 15 15 15 14 14 14 13 13 12 12 11 11
19 19 18 18 18 18 17 17 17 17 17 17 17 16 16 16 16 16 16 16 16 16 16 16 15 15 15 15 15 15 15 15 14 14 14 14 13 13 13 12 12 11 11
19 18 18 18 18 17 17 17 17 17 17 17 16 16 16 16 16 16 16 16 15 15 15 15 15 15 15 15 15 14 14 14 14 14 13 13 13 13 12 12 12 11 10
19 18 18 18 18 17 17 17 17 17 16 16 16 16 16 16 16 16 15 15 15 15 15 15 15 15 14 14 14 14 13 13 13 13 13 13 12 12 12 11 11 10 10
19 18 18 18 18 17 17 17 17 16 16 16 16 16 16 16 15 15 15 15 15 15 14 14 14 14 14 13 13 13 13 13 12 12 12 12 12 11 11 11 11 10 10
18 18 18 17 17 17 17 16 16 16 16 15 15 15 15 15 15 15 15 14 14 14 14 14 13 13 13 13 13 13 12 12 12 11 11 11 11 11 10 10 10 10 10
18 18 17 17 17 16 16 16 16 15 15 15 15 15 15 15 14 14 14 14 14 13 13 13 13 12 12 12 12 12 12 11 11 11 11 10 10 10 10 10 10 9 9
18 17 17 17 16 16 16 15 15 15 15 14 14 14 14 14 14 14 14 13 13 13 13 12 12 12 11 11 11 11 11 10 10 10 10 10 10 9 9 9 9 9 9
17 17 16 16 16 16 15 15 14 14 14 14 14 14 14 13 13 13 13 12 12 12 12 11 11 11 11 10 10 10 10 10 10 10 9 9 9 9 8 8 8 8 8
16 16 16 15 15 15 15 14 14 14 14 13 13 13 13 13 13 12 12 12 12 11 11 11 10 10 10 10 10 9 9 9 9 9 9 9 8 8 8 8 8 8 8
15 15 15 15 14 14 14 14 14 13 13 13 13 13 13 12 12 12 11 11 11 11 10 10 10 10 9 9 9 9 9 9 9 9 9 8 8 8 8 8 8 7 7
15 15 14 14 14 13 13 13 13 13 13 12 12 12 12 12 11 11 11 11 10 10 10 9 9 9 9 9 9 9 9 9 8 8 8 8 8 8 8 8 7 7 7
14 14 13 13 13 13 13 12 12 12 12 12 12 11 11 11 11 10 10 10 9 9 9 9 9 9 9 9 9 8 8 8 8 8 8 8 8 8 8 8 7 7 7
13 13 12 12 12 12 12 11 11 11 11 11 11 11 10 10 10 9 9 9 9 9 9 9 9 8 8 8 8 8 8 8 8 8 8 8 8 8 7 7 7 7 7
12 12 12 11 11 11 11 11 11 11 10 10 10 10 10 9 9 9 9 9 8 8 8 8 8 8 8 8 8 8 8 8 7 7 7 7 7 7 7 7 7 7 7
11 11 11 11 11 11 10 10 10 10 9 9 9 9 9 9 9 9 8 8 8 8 8 8 8 8 8 8 7 7 7 7 7 7 7 7 7 7 7 7 7 7 7
11 11 10 10 10 10 10 10 10 9 9 9 9 9 8 8 8 8 8 8 8 8 8 8 8 8 8 7 7 7 7 7 7 7 7 7 7 7 7 6 6 6 6
10 10 10 10 10 10 9 9 9 9 9 9 9 8 8 8 8 8 8 8 8 7 7 7 7 7 7 7 7 7 7 7 7 7 7 6 6 6 6 6 6 6 6
10 10 10 10 10 10 9 9 9 9 9 9 8 8 8 8 7 7 7 7 7 7 7 7 7 7 7 7 7 6 6 6 6 6 6 6 6 6 6 6 6 6 6
10 10 10 10 10 10 9 9 9 9 9 8 8 8 8 8 8 7 7 7 7 7 7 7 7 7 7 7 6 6 6 6 6 6 6 6 6 6 6 6 6 6 6
10 10 10 10 10 10 9 9 9 9 9 9 8 8 8 8 8 8 8 7 7 7 7 7 7 7 7 6 6 6 6 6 6 6 5 5 5 5 5 5 6 6 6
Wind_Speed
7 5 4 5 5 4 4 4 4 3 3 4 4 5 5 5 5 5 5 4 5 5 5 5 5 4 3 3 3 2 2 3 3 2 2 3 4 6 9 11 11 12 11
6 6 5 4 4 4 4 4 3 3 4 4 4 4 5 4 4 5 6 5 5 5 5 4 4 4 4 4 3 4 3 3 4 5 4 3 4 6 7 7 9 10 11
7 6 5 4 4 4 3 3 3 4 3 4 4 4 4 4 4 4 4 4 3 4 4 4 4 4 4 4 3 3 3 4 4 6 5 3 3 5 6 5 7 7 9
7 6 5 4 4 3 3 3 3 3 3 2 2 3 3 3 3 2 3 3 2 2 2 2 3 3 4 4 4 3 3 3 4 5 5 5 5 5 6 6 5 4 4
7 6 6 5 4 3 3 3 3 2 3 2 2 2 2 2 2 2 2 3 2 1 1 1 1 1 1 1 3 3 4 4 5 6 6 5 5 6 6 5 6 5 3
5 5 5 5 4 3 3 3 3 2 2 2 2 1 1 1 2 1 0 1 1 1 1 1 1 1 2 3 4 3 3 4 5 5 5 7 7 6 5 7 6 5 4
5 5 5 5 4 4 4 3 3 2 2 2 2 2 2 2 3 3 2 0 1 1 1 1 2 1 2 3 4 4 3 2 3 4 5 6 6 7 7 7 6 4 3
6 6 5 5 5 4 4 3 3 2 2 2 2 2 2 3 4 3 2 0 1 0 0 1 1 1 2 3 4 4 4 3 2 2 3 4 4 5 6 6 7 5 3
7 6 5 5 5 4 4 3 3 2 2 2 2 2 3 3 4 3 2 1 2 1 1 2 2 3 5 5 5 5 5 4 8 10 9 9 10 10 8 5 6 6 4
5 5 4 4 4 4 4 4 3 2 2 2 2 2 3 3 3 3 1 1 2 2 2 3 5 4 5 5 4 5 5 3 5 6 7 8 8 9 8 5 5 5 4
4 4 3 3 4 4 3 3 3 2 2 2 3 3 3 3 4 3 1 0 1 2 2 2 3 5 5 4 3 3 5 5 5 6 6 5 5 4 4 4 3 3 3
4 4 3 3 3 3 3 3 3 3 3 3 3 2 3 3 3 3 3 3 1 2 2 3 3 5 5 4 3 5 6 5 5 5 5 5 5 5 4 5 5 5 4
4 3 3 3 2 3 3 3 3 3 3 3 3 3 3 3 4 5 5 4 4 3 3 5 6 6 5 4 5 5 4 3 4 5 5 4 4 5 5 5 5 5 5
3 3 2 2 2 2 1 1 1 1 2 2 2 2 2 3 3 3 3 4 5 5 5 6 6 4 3 4 4 2 1 2 3 4 4 5 5 5 4 5 5 5 4
2 2 2 2 2 2 2 3 2 3 2 1 1 0 1 2 2 4 3 3 4 5 5 4 3 3 3 3 2 2 2 2 3 3 4 5 5 5 5 4 4 4 4
2 1 1 2 2 2 3 3 8 6 7 7 5 3 3 4 5 6 5 6 7 7 4 4 4 4 4 4 4 3 3 3 3 4 4 4 5 5 5 4 3 3 4
0 0 1 0 1 2 2 2 2 4 7 8 7 7 6 7 7 6 6 7 7 6 3 4 4 4 4 4 4 4 4 3 3 3 4 4 4 4 4 4 4 3 3
1 0 1 0 1 1 1 1 1 2 2 2 4 6 7 7 6 6 6 5 3 3 3 3 4 3 3 3 3 3 3 4 3 3 3 4 4 4 4 4 4 4 4
1 1 1 1 0 0 0 0 1 1 2 3 3 3 4 5 5 4 4 2 3 3 3 3 3 3 3 3 3 2 3 3 4 3 3 4 4 4 4 4 4 5 3
1 1 1 1 0 0 0 1 1 1 2 2 3 3 3 3 3 3 2 2 3 2 3 3 2 2 2 2 3 3 3 3 4 3 3 4 3 3 3 4 4 4 3
1 1 2 0 0 0 1 1 1 1 2 2 2 3 4 3 3 3 3 3 3 2 2 2 2 2 2 3 3 4 4 3 4 4 3 3 3 3 3 3 3 3 3
1 1 1 1 1 1 1 1 1 1 2 2 2 4 5 3 2 3 3 3 3 2 2 2 3 3 3 3 4 4 4 4 4 4 3 3 3 3 3 3 4 3 3
1 1 2 2 2 2 2 1 1 1 1 2 2 3 3 2 2 2 2 2 3 2 3 3 2 2 4 4 5 4 4 3 3 4 4 3 3 4 3 3 3 3 3
1 1 1 2 2 1 2 2 2 2 2 2 2 3 3 2 2 1 1 1 2 2 3 3 3 4 4 5 5 6 6 5 5 5 5 3 3 3 3 3 3 4 4
2 2 2 2 2 1 1 2 2 1 1 2 2 3 3 3 3 3 2 2 2 2 3 4 4 4 6 6 6 6 6 6 5 4 4 2 3 3 3 3 4 5 5
2 2 2 2 2 2 1 1 1 1 1 1 2 2 3 3 3 4 4 4 3 4 4 4 5 6 6 7 8 8 10 9 7 5 4 3 3 4 4 4 6 5 5
Wind_Direction
178 185 186 187 193 202 218 226 223 214 202 203 202 211 214 214 216 213 230 228 217 219 230 227 222 240 257 258 233 214 209 186 169 143 124 124 124 125 128 130 131 130 132
172 176 179 181 185 202 210 209 206 203 205 209 209 212 218 212 214 213 226 227 222 223 228 232 230 236 236 251 248 232 219 191 166 158 158 156 137 135 134 134 134 134 131
170 173 175 185 187 195 199 189 189 198 208 209 206 207 218 216 218 218 224 238 236 234 231 227 231 234 241 237 234 233 214 197 165 161 165 160 149 142 133 130 123 126 132
169 170 170 178 183 179 177 174 184 196 200 202 203 206 221 220 215 213 223 231 234 251 260 247 240 235 240 232 228 217 203 177 161 158 158 160 156 152 147 147 140 143 139
167 167 168 170 166 161 166 174 178 198 207 187 197 206 214 214 209 206 215 211 194 212 259 271 253 211 236 237 227 200 179 170 168 169 168 164 167 168 170 169 160 151 132
164 162 158 161 159 161 164 176 176 185 191 178 178 169 169 195 86 93 165 170 176 189 207 235 222 143 101 108 108 118 143 172 179 182 182 177 176 174 168 166 161 162 165
163 163 162 163 163 162 174 175 172 174 173 169 157 143 131 101 82 83 55 330 171 191 209 231 237 166 118 118 105 99 95 120 168 186 182 177 173 177 171 170 170 169 165
170 170 168 172 173 167 167 162 156 157 163 154 145 144 135 108 93 89 61 135 141 80 59 110 131 136 113 114 114 100 80 62 96 138 153 161 157 159 168 164 159 139 117
175 174 174 176 171 169 169 159 156 160 165 164 152 147 133 110 88 78 53 130 120 107 91 69 90 93 88 106 121 120 109 87 74 88 99 108 113 121 128 141 156 155 154
173 169 167 169 171 174 172 166 166 169 177 169 143 135 129 118 100 83 59 172 146 128 97 84 75 98 106 109 132 139 137 131 119 104 101 109 118 126 130 139 159 166 155
156 155 162 167 169 170 164 161 163 173 173 162 145 141 134 127 122 101 100 144 157 147 131 108 86 95 104 111 130 138 146 144 137 133 128 125 125 129 131 124 122 150 151
141 150 155 156 169 160 152 155 161 175 180 173 168 169 154 137 114 118 119 119 94 112 114 110 106 107 104 100 111 129 137 144 144 141 140 141 143 142 134 127 123 120 108
128 135 133 134 128 125 144 156 177 190 199 201 193 197 181 143 123 119 122 117 108 103 103 111 120 125 123 111 118 130 143 152 148 148 148 147 142 136 136 135 131 123 115
132 133 138 145 139 130 134 164 198 212 215 214 218 206 173 154 149 147 145 133 121 119 120 120 118 110 107 113 129 147 174 151 152 149 145 140 138 146 153 154 155 154 144
122 141 163 165 151 124 84 41 31 49 19 318 273 233 198 177 149 141 154 161 156 141 141 148 151 149 147 154 167 174 170 164 151 148 147 150 155 159 161 161 165 167 160
135 148 187 165 144 147 139 102 55 61 59 59 56 63 77 95 124 128 127 127 128 141 153 168 173 179 183 184 181 180 187 184 175 162 159 163 165 164 163 168 177 179 162
62 102 279 203 156 160 161 159 139 78 65 60 61 73 100 120 118 122 125 130 143 156 187 185 186 191 194 190 188 189 187 179 178 173 173 168 163 163 165 167 169 163 151
304 133 304 266 210 190 189 187 177 170 149 100 72 88 108 118 121 126 129 131 154 193 217 194 186 190 195 194 189 192 180 173 176 179 174 167 167 171 169 168 165 165 168
336 1 360 345 23 98 163 175 157 150 142 131 116 99 109 119 118 128 149 183 186 198 208 207 198 188 190 190 180 170 168 172 172 174 177 177 177 177 178 179 162 157 176
76 45 356 325 40 142 158 114 96 103 124 138 140 142 150 151 151 161 189 221 224 221 207 203 210 203 187 169 164 170 175 173 172 187 189 183 182 177 173 172 174 181 192
142 131 169 146 82 84 102 104 111 122 139 143 146 147 163 175 171 173 187 210 220 227 220 195 183 189 182 174 174 181 184 184 190 192 183 177 181 176 177 181 184 190 192
161 150 145 126 113 101 108 121 131 144 166 154 146 152 170 192 177 183 194 202 209 213 206 183 184 188 186 180 174 178 190 192 184 178 179 177 174 176 187 190 183 181 189
166 148 126 118 119 127 139 134 124 126 138 137 137 142 165 189 190 196 198 195 191 190 189 187 191 190 186 185 185 182 192 191 181 174 175 179 181 186 189 187 190 198 205
119 119 113 113 121 129 120 115 121 132 137 141 148 151 161 175 195 207 219 213 185 182 189 187 193 198 191 188 191 191 193 189 179 183 181 181 183 184 184 192 208 220 223
132 122 121 123 127 125 116 118 124 132 153 168 163 165 174 185 199 205 211 218 201 188 193 198 205 211 203 192 187 178 159 150 149 156 167 184 195 201 209 218 227 233 232
118 120 118 112 110 113 125 139 156 193 208 199 184 188 198 205 210 211 212 216 213 203 203 209 207 202 196 193 193 177 165 167 172 182 195 217 219 224 227 238 247 247 245
Height
1530 1531 1532 1533 1534 1535 1535 1536 1538 1539 1541 1542 1544 1545 1547 1548 1550 1551 1552 1553 1554 1555 1556 1557 1558 1559 1559 1560 1561 1562 1562 1563 1564 1565 1567 1568 1569 1569 1570 1571 1572 1573 1573
1528 1529 1530 1532 1532 1533 1534 1534 1536 1537 1538 1540 1541 1543 1544 1545 1547 1548 1548 1550 1551 1552 1553 1553 1554 1555 1555 1556 1557 1557 1558 1559 1560 1561 1563 1564 1565 1566 1567 1568 1569 1570 1571
1527 1528 1529 1530 1531 1531 1532 1533 1534 1535 1536 1538 1539 1540 1541 1542 1544 1544 1545 1546 1547 1548 1549 1550 1550 1550 1551 1552 1552 1553 1554 1555 1556 1557 1558 1560 1562 1563 1564 1565 1566 1567 1568
1526 1527 1528 1528 1529 1530 1531 1532 1533 1534 1535 1536 1537 1538 1539 1540 1540 1541 1542 1543 1543 1544 1545 1545 1546 1546 1547 1547 1548 1548 1549 1550 1551 1553 1554 1556 1557 1559 1560 1561 1563 1564 1565
1525 1526 1526 1527 1528 1529 1530 1531 1532 1532 1533 1534 1535 1536 1536 1537 1537 1538 1539 1539 1540 1540 1541 1541 1542 1542 1542 1543 1543 1544 1545 1546 1547 1549 1550 1552 1553 1555 1556 1558 1559 1561 1562
1524 1525 1525 1526 1527 1527 1528 1529 1530 1531 1532 1533 1533 1534 1534 1535 1535 1536 1536 1536 1537 1537 1537 1537 1538 1538 1538 1538 1539 1540 1541 1542 1543 1545 1546 1547 1548 1550 1552 1554 1556 1557 1559
1522 1523 1524 1525 1525 1526 1527 1528 1528 1529 1530 1531 1531 1532 1532 1532 1533 1533 1534 1534 1534 1534 1534 1534 1534 1534 1535 1535 1535 1536 1537 1538 1540 1541 1541 1543 1544 1547 1549 1550 1552 1554 1555
1521 1522 1523 1523 1524 1525 1526 1527 1527 1528 1529 1529 1529 1530 1530 1531 1531 1531 1531 1531 1531 1531 1531 1531 1531 1531 1531 1532 1532 1532 1533 1534 1536 1537 1538 1540 1542 1544 1546 1547 1549 1551 1553
1519 1520 1521 1522 1523 1523 1524 1525 1525 1526 1526 1527 1527 1528 1528 1528 1529 1529 1529 1529 1529 1529 1528 1528 1528 1528 1528 1529 1529 1530 1530 1531 1533 1534 1536 1537 1539 1541 1542 1544 1545 1547 1549
1517 1518 1519 1520 1521 1522 1522 1523 1523 1524 1524 1525 1525 1525 1526 1526 1526 1526 1526 1526 1526 1526 1526 1526 1526 1526 1526 1526 1527 1527 1528 1529 1530 1531 1533 1534 1536 1537 1539 1540 1542 1544 1545
1515 1516 1517 1518 1519 1519 1520 1521 1521 1522 1522 1522 1522 1522 1523 1523 1523 1524 1524 1524 1524 1523 1523 1523 1523 1524 1524 1524 1525 1525 1526 1527 1528 1529 1530 1531 1533 1534 1536 1538 1539 1541 1543
1513 1514 1515 1516 1517 1517 1518 1518 1519 1519 1520 1520 1520 1520 1520 1520 1520 1520 1521 1521 1521 1521 1521 1521 1521 1522 1522 1522 1523 1524 1525 1525 1526 1527 1528 1529 1530 1532 1534 1535 1537 1539 1541
1511 1512 1513 1514 1514 1515 1515 1516 1517 1517 1517 1517 1517 1517 1517 1517 1517 1517 1518 1518 1518 1518 1518 1519 1519 1519 1520 1520 1521 1522 1523 1524 1525 1526 1526 1528 1529 1531 1532 1534 1536 1537 1539
1509 1510 1511 1511 1512 1513 1513 1513 1514 1514 1514 1514 1515 1515 1515 1515 1514 1514 1515 1515 1515 1515 1516 1516 1517 1517 1518 1519 1519 1520 1521 1522 1523 1525 1526 1527 1528 1529 1531 1533 1534 1536 1537
1507 1508 1509 1509 1510 1510 1510 1511 1511 1511 1512 1512 1512 1512 1512 1511 1511 1512 1512 1512 1512 1513 1513 1514 1515 1515 1516 1517 1518 1519 1520 1521 1522 1523 1525 1526 1527 1528 1530 1532 1533 1535 1536
1505 1506 1506 1507 1507 1507 1507 1508 1507 1508 1508 1508 1509 1509 1508 1509 1509 1509 1509 1510 1510 1511 1512 1512 1513 1513 1514 1515 1516 1517 1518 1519 1520 1522 1523 1525 1526 1528 1529 1531 1532 1534 1535
1502 1503 1504 1504 1504 1504 1504 1504 1504 1505 1505 1505 1505 1505 1505 1505 1505 1506 1506 1507 1508 1508 1509 1510 1511 1511 1512 1513 1514 1515 1516 1517 1518 1520 1521 1523 1525 1526 1528 1529 1531 1533 1534
1501 1501 1501 1502 1502 1501 1501 1502 1502 1502 1502 1501 1502 1502 1502 1502 1502 1503 1503 1504 1505 1506 1507 1508 1508 1509 1510 1511 1512 1513 1514 1515 1516 1518 1520 1521 1523 1525 1526 1528 1529 1531 1532
1499 1499 1499 1499 1499 1499 1499 1499 1499 1499 1499 1499 1499 1499 1499 1500 1500 1501 1501 1502 1503 1503 1504 1505 1506 1507 1508 1509 1510 1511 1512 1513 1515 1516 1518 1519 1521 1523 1524 1526 1528 1529 1531
1497 1497 1497 1497 1497 1498 1498 1497 1497 1497 1497 1497 1496 1496 1497 1497 1498 1498 1499 1500 1501 1501 1502 1503 1504 1505 1506 1507 1507 1508 1510 1511 1513 1514 1516 1518 1519 1521 1522 1524 1526 1528 1529
1496 1496 1496 1496 1496 1496 1496 1496 1495 1495 1495 1495 1495 1495 1495 1496 1497 1497 1498 1498 1499 1499 1500 1501 1502 1502 1503 1504 1505 1506 1508 1509 1511 1512 1514 1515 1517 1519 1521 1522 1524 1526 1527
1495 1495 1495 1494 1494 1494 1494 1494 1494 1494 1494 1494 1494 1494 1495 1495 1496 1496 1497 1497 1497 1498 1498 1499 1499 1500 1501 1502 1503 1504 1506 1507 1509 1510 1512 1513 1515 1517 1519 1520 1522 1524 1525
1495 1495 1494 1494 1493 1493 1493 1493 1493 1493 1494 1494 1494 1493 1493 1494 1495 1495 1496 1496 1496 1496 1497 1497 1498 1499 1499 1500 1501 1502 1503 1505 1507 1508 1510 1511 1513 1515 1517 1518 1520 1522 1523
1494 1494 1493 1493 1492 1492 1493 1493 1493 1493 1493 1493 1493 1493 1493 1493 1494 1494 1494 1495 1495 1495 1496 1496 1497 1497 1498 1498 1499 1500 1502 1503 1505 1506 1508 1509 1511 1513 1514 1516 1517 1519 1521
1493 1493 1493 1492 1492 1492 1492 1492 1492 1492 1492 1492 1492 1492 1492 1493 1493 1493 1493 1494 1494 1495 1495 1495 1495 1496 1497 1497 1498 1499 1500 1501 1503 1504 1505 1507 1509 1511 1512 1514 1515 1517 1518
1493 1493 1493 1493 1492 1492 1492 1492 1492 1492 1492 1492 1492 1492 1492 1493 1493 1493 1493 1493 1493 1493 1493 1494 1494 1495 1495 1495 1496 1497 1498 1499 1500 1502 1503 1505 1507 1508 1510 1511 1512 1514 1515